Location: Newark
(48.6461°N, 4.3644°W)
Time: 21:59:44
(UTC+00:00)

Transit 4A - Pass Details

Date: 29 January 2020
Orbit: 872 x 973 km, 66.8° (Epoch: 20 February)

Event Time Altitude Azimuth Distance (km) Brightness Sun altitude
Rises 15:39:04 0° 317° (NW) 3,471 10.9 11.3°
Reaches altitude 10° 15:41:52 10° 306° (NW) 2,529 10.4 11.0°
Maximum altitude 15:46:41 27° 250° (WSW) 1,609 10.5 10.4°
Drops below altitude 10° 15:51:31 10° 194° (SSW) 2,538 11.3 9.8°
Sets 15:54:21 0° 183° (S) 3,486 11.6 9.5°
